{"data":{"norad_id":56418,"intl_designator":"2023-061AW","name":"STARLINK-5356","alt_names":[],"object_type":"PAYLOAD","status":"ACTIVE","operator":null,"country":"US","launch_date":"2023-05-04","launch_site_code":"AFETR","launch_vehicle":null,"mission":null,"orbit_class":"UNKNOWN","rcs_meters":null,"size_class":null,"mass_kg":null,"dimensions":null,"purposes":["comms"],"wikipedia_slug":null,"has_3d_model":false,"image_url":null,"decayed_at":null,"tle_current":{"epoch":"2026-09-19T23:12:20.062368Z","epoch_age_seconds":158113,"freshness":"FRESH","line1":"1 56418U 23061AW  26262.96689887 -.00000013  00000+0  90418-5 0  9996","line2":"2 56418  43.0035 162.2239 0001018 266.2172  93.8563 15.27575002186678","mean_motion":15.27575002,"eccentricity":0.0001018,"inclination_deg":43.0035,"raan_deg":162.2239,"arg_perigee_deg":266.2172,"mean_anomaly_deg":93.8563,"bstar":9.0418e-6,"rev_number":18667,"period_min":94.267057140544,"perigee_km":482.36559162238,"apogee_km":483.76253215858,"semimajor_km":6861.2010618905,"source":"CELESTRAK","updated_at":"2026-09-21T09:00:33.438255Z"}}}